DW8306 Weather Reports


Display with metric or nautical units.
time (UTC)temp
F
wind
direction
speed
MPH
gust
MPH
rain 1hr
in
rain 24hr
in
rain mn
in
humidity
%
barometer
mb
20260509090020 64 198 0.0 0.0 0.00 1.20 1.20 95 1009.4
20260509084608 64 198 0.0 1.0 0.01 1.20 1.20 95 1009.0
20260509083031 64 198 0.0 0.0 0.02 1.20 1.20 94 1009.2
20260509081513 64 198 0.0 0.0 0.05 1.20 1.20 94 1009.9
20260509080120 64 91 0.0 0.0 0.34 1.20 1.20 94 1009.1
20260509074506 64 91 0.0 1.0 0.81 1.19 1.19 94 1008.4
20260509073007 64 228 0.0 5.0 1.17 1.17 1.17 93 1008.3
20260509070004 66 258 0.0 1.0 0.77 0.77 0.77 92 1011.7
20260509064605 68 325 2.0 19.0 0.42 0.42 0.42 89 1011.5
20260509063013 69 29 0.0 0.0 0.00 0.00 0.00 90 1010.4
20260509061505 69 29 0.0 0.0 0.00 0.00 0.00 90 1010.5
20260509060040 69 29 0.0 0.0 0.00 0.00 0.00 89 1010.1
20260509054505 69 45 0.0 0.0 0.00 0.00 0.00 89 1010.5
20260509051603 69 45 0.0 0.0 0.00 0.00 0.00 89 1010.0
20260509050018 69 45 0.0 0.0 0.00 0.00 0.00 89 1010.5
20260509044504 69 45 0.0 0.0 0.00 0.00 0.00 88 1010.6
20260509041521 69 345 0.0 0.0 0.00 0.00 0.00 88 1010.9
20260509040105 70 43 0.0 0.0 0.00 0.00 0.00 88 1010.7
20260509034508 70 56 0.0 0.0 0.00 0.00 0.00 87 1010.6
20260509033004 70 354 0.0 0.0 0.00 0.00 0.00 87 1010.3
20260509031509 70 354 0.0 0.0 0.00 0.00 0.00 87 1010.3
20260509030028 70 354 0.0 0.0 0.00 0.00 0.00 87 1010.2
20260509024516 70 4 0.0 0.0 0.00 0.00 0.00 87 1009.9
20260509023014 70 54 0.0 1.0 0.00 0.00 0.00 87 1009.4
20260509020018 70 277 0.0 1.0 0.00 0.00 0.00 86 1008.9
20260509014519 70 265 0.0 1.0 0.00 0.00 0.00 86 1008.7
20260509013107 70 265 0.0 1.0 0.00 0.00 0.00 85 1008.7
20260509011506 71 263 0.0 2.0 0.00 0.00 0.00 82 1008.4
20260509010007 71 242 0.0 2.0 0.00 0.00 0.00 80 1008.1
20260509004618 72 9 0.0 2.0 0.00 0.00 0.00 79 1007.7
20260509003018 74 194 0.0 4.0 0.00 0.00 0.00 76 1007.6
20260509001622 75 295 0.0 5.0 0.00 0.00 0.00 75 1008.7
20260509000120 75 315 0.0 1.0 0.00 0.00 0.00 74 1008.7
20260508233008 75 212 0.0 0.0 0.00 0.00 0.00 68 1009.8
20260508231613 76 212 0.0 0.0 0.00 0.00 0.00 66 1010.0
20260508230018 77 212 0.0 1.0 0.00 0.00 0.00 65 1009.6
20260508224515 78 91 1.0 5.0 0.00 0.00 0.00 67 1009.6
20260508223009 78 254 0.0 2.0 0.00 0.00 0.00 66 1009.3
20260508221508 79 65 1.0 6.0 0.00 0.00 0.00 64 1009.1
20260508220013 78 259 1.0 5.0 0.00 0.00 0.00 62 1009.2
20260508214510 78 349 0.0 1.0 0.00 0.00 0.00 62 1009.7
20260508213025 78 42 0.0 1.0 0.00 0.00 0.00 60 1009.6
20260508211516 79 118 0.0 5.0 0.00 0.00 0.00 57 1009.6
20260508210027 81 14 0.0 2.0 0.00 0.00 0.00 60 1009.7
20260508204605 81 209 0.0 5.0 0.00 0.00 0.00 55 1009.9
20260508203110 80 145 2.0 6.0 0.00 0.00 0.00 56 1009.8
20260508201519 81 326 0.0 4.0 0.00 0.00 0.00 59 1010.0
20260508200119 80 84 0.0 6.0 0.00 0.00 0.00 56 1010.2
20260508194520 78 89 1.0 5.0 0.00 0.00 0.00 60 1010.3
20260508193007 79 100 1.0 4.0 0.00 0.00 0.00 57 1010.7
20260508191611 79 243 0.0 5.0 0.00 0.00 0.00 62 1011.0
20260508190009 78 247 0.0 2.0 0.00 0.00 0.00 62 1011.2
20260508184516 77 273 0.0 2.0 0.00 0.00 0.00 59 1011.5
20260508183005 75 115 3.0 8.0 0.00 0.00 0.00 60 1011.7
20260508181513 75 93 2.0 6.0 0.00 0.00 0.00 61 1011.7
20260508180005 74 74 0.0 8.0 0.00 0.00 0.00 62 1012.0
20260508174510 76 20 0.0 5.0 0.00 0.00 0.00 62 1012.4
20260508171510 74 217 0.0 5.0 0.00 0.00 0.00 62 1012.8
20260508170106 74 354 1.0 8.0 0.00 0.00 0.00 62 1013.1
20260508164605 73 4 0.0 4.0 0.00 0.00 0.00 63 1013.6
20260508163004 72 314 0.0 10.0 0.00 0.00 0.00 64 1013.8
20260508161505 73 191 0.0 5.0 0.00 0.00 0.00 62 1014.4
20260508160105 72 89 0.0 7.0 0.00 0.00 0.00 63 1014.8
20260508153022 68 152 0.0 6.0 0.00 0.00 0.00 66 1015.3
20260508151611 68 88 0.0 5.0 0.00 0.00 0.00 65 1015.6
20260508150020 68 100 0.0 5.0 0.00 0.00 0.00 66 1015.3
20260508144607 66 87 0.0 4.0 0.00 0.00 0.00 74 1015.0
20260508143017 64 56 0.0 6.0 0.00 0.00 0.00 74 1015.2
20260508141620 64 58 0.0 4.0 0.00 0.00 0.00 74 1015.2
20260508140121 63 73 1.0 6.0 0.00 0.00 0.00 74 1015.1
20260508134518 63 95 3.0 7.0 0.00 0.00 0.00 75 1014.4
20260508133008 62 44 0.0 7.0 0.00 0.00 0.00 78 1013.7
20260508131522 62 79 1.0 6.0 0.00 0.00 0.00 79 1013.9
20260508130108 62 85 0.0 0.0 0.00 0.00 0.00 80 1014.3
20260508124607 62 105 0.0 1.0 0.00 0.00 0.00 81 1014.2
20260508123014 61 57 0.0 1.0 0.00 0.00 0.00 83 1014.2
20260508121515 60 38 0.0 0.0 0.00 0.00 0.00 86 1014.4
20260508120122 59 38 0.0 0.0 0.00 0.00 0.00 87 1014.6
20260508114605 59 38 0.0 0.0 0.00 0.00 0.00 87 1014.9
20260508113008 59 35 0.0 0.0 0.00 0.00 0.00 87 1014.9
20260508111607 59 39 0.0 0.0 0.00 0.00 0.00 88 1015.0
20260508110010 60 79 0.0 0.0 0.00 0.00 0.00 88 1014.6
20260508104512 60 79 0.0 0.0 0.00 0.00 0.00 87 1014.4
20260508100008 59 4 0.0 0.0 0.00 0.00 0.00 89 1014.3
20260508094519 59 4 0.0 0.0 0.00 0.00 0.00 88 1014.5
20260508093104 59 4 0.0 0.0 0.00 0.00 0.00 88 1014.4
20260508091517 59 8 0.0 0.0 0.00 0.00 0.00 88 1014.4